Tracking 27428 objects as of 31-May-2023
HD Live streaming from Space Station
objects crossing your sky now

STARLINK-3077

Track STARLINK-3077 now!
10-day predictions
STARLINK-3077 is classified as:


NORAD ID: 49133
Int'l Code: 2021-082D
Perigee: 577.0 km
Apogee: 581.4 km
Inclination: 70.0 °
Period: 96.1 minutes
Semi major axis: 6950 km
RCS: Unknown
Launch date: September 14, 2021
Source: United States (US)
Launch site: AIR FORCE WESTERN TEST RANGE (AFWTR)
Your satellite tracking list
Your tracking list is empty




NASA's NSSDC Master Catalog

Two Line Element Set (TLE):
1 49133U 21082D   23151.57299447  .00001010  00000-0  92420-4 0  9995
2 49133  69.9989 328.8835 0003213 269.8684  90.2107 14.98331194 94220
Source of the keplerian elements: AFSPC